Location: Ebenezer
(18.2167°N, 63.0667°W)
Time: 13:39:10
(UTC+00:00)

Cosmos 1356 Rocket - Pass Details

Date: 26 January 2020
Orbit: 543 x 598 km, 81.2° (Epoch: 24 February)

Event Time Altitude Azimuth Distance (km) Brightness Sun altitude
Rises 22:49:14 0° 1° (N) 2,745 6.7 -11.3°
Reaches altitude 10° 22:51:27 10° 6° (N) 1,857 5.8 -11.8°
Maximum altitude 22:55:26 52° 83° (E) 715 3.5 -12.7°
Drops below altitude 10° 22:59:30 10° 160° (SSE) 1,885 6.0 -13.6°
Sets 23:01:45 0° 165° (SSE) 2,792 6.9 -14.1°
